Location: *
(49.7033°N, 1.8419°W)
Time: 09:08:12
(UTC+00:00)

Daily predictions for brighter satellites

Satellite Brightness Start Highest point End
(mag) Time Altitude Azimuth Time Altitude Azimuth Time Altitude Azimuth
COSMOS 2428 2.8 18:39:08 10° NNW 18:44:50 69° ENE 18:50:30 10° SE
Cosmos 2322 4.1 18:41:11 10° NNW 18:46:56 73° WSW 18:52:37 10° SSE
Cosmos 1939 Rocket 2.8 18:43:48 10° SSE 18:47:37 65° ENE 18:51:28 10° N
FREGAT/IRIS 3.4 18:47:05 10° SE 18:49:33 28° ENE 18:52:03 10° N
Cosmos 1743 3.5 18:46:00 10° SSW 18:49:48 58° WNW 18:53:38 10° N
ATLAS 2AS CENTAUR R/B 3.0 18:42:00 10° NW 18:49:51 82° NE 18:57:03 10° SE
Cosmos 405 4.1 18:46:30 10° NNW 18:49:53 48° W 18:53:15 10° S
CZ-4C R/B 4.0 18:44:58 10° W 18:49:56 31° NNW 18:55:46 10° NE
Cosmos 2154 Rocket 4.2 18:44:36 10° N 18:50:40 52° ENE 18:56:41 10° SSE
NOAA 11 4.2 18:45:28 10° SSE 18:50:57 75° ENE 18:56:28 10° NNW
Cosmos 2360 Rocket 3.6 18:47:35 10° NW 18:52:53 42° WSW 18:58:09 10° S
BREEZE-M DEB (TANK) 4.4 18:52:23 10° SW 18:53:44 13° SSW 18:55:36 10° S
CZ-2D R/B 3.2 18:51:23 10° SSE 18:55:11 89° WSW 18:59:01 10° NNW
Okean 1 Rocket 3.4 18:58:30 10° SSE 19:02:36 43° E 19:06:45 10° NNE
ASTEX 1 3.9 18:58:57 10° NNE 19:03:31 38° E 19:08:03 10° SSE
MONITOR-E 3.8 19:03:06 10° SSE 19:05:53 74° ENE 19:08:42 10° N
SL-8 R/B 3.9 19:01:15 10° WSW 19:05:55 54° SSE 19:10:24 11° E
Cosmos 2184 Rocket 4.1 18:59:50 10° N 19:06:05 83° W 19:12:22 10° S
Meteor 1-12 Rocket 4.2 19:02:12 10° S 19:07:52 68° E 19:13:30 10° NNE
Cosmos 2251 Rocket 4.3 19:02:41 10° NNW 19:07:58 57° WSW 19:13:13 10° S
Okean 2 Rocket 4.2 19:03:42 10° SSW 19:08:03 51° WNW 19:12:28 10° N
Resurs 01 Rocket 3.2 19:05:43 12° ESE 19:08:28 19° ENE 19:11:38 10° NNE
Cosmos 2219 4.0 19:04:27 10° SSE 19:09:18 29° ESE 19:14:09 10° NE
H-2A R/B 2.7 19:04:53 10° SE 19:09:18 34° ENE 19:13:49 10° N
Cosmos 2227 Rocket 3.5 19:05:59 10° SE 19:09:32 17° E 19:13:06 10° ENE
Cosmos 1842 4.1 19:07:47 10° NNW 19:11:42 56° W 19:15:33 10° S
GP-B 3.1 19:07:30 10° N 19:11:58 82° E 19:16:25 10° S
Cosmos 1975 4.0 19:08:52 10° SSW 19:12:42 47° WNW 19:16:36 10° N
Meteor 2-9 Rocket 4.3 19:07:20 10° S 19:13:07 90° E 19:18:47 10° NNE
BREEZE M DEB (TANK) 1.4 19:12:42 10° WSW 19:14:46 77° S 19:17:51 13° E
SAR-Lupe-2 3.7 19:12:52 10° NNE 19:16:23 49° E 19:19:51 10° S
ERBS 3.8 19:14:23 10° NW 19:17:23 28° NNE 19:19:52 13° ENE
ARGOS 3.7 19:12:47 10° SE 19:17:45 40° ENE 19:22:45 10° N
Cosmos 1544 2.9 19:16:02 10° S 19:19:36 71° E 19:23:12 10° NNE
USA 186 2.0 19:16:57 10° SSE 19:20:15 54° ENE 19:23:38 10° N
Cosmos 2297 Rocket 3.3 19:16:04 10° SSE 19:20:17 22° ESE 19:24:31 10° NE
Cosmos 1437 Rocket 4.3 19:19:29 10° NNE 19:22:11 18° ENE 19:23:15 16° E
Cosmos 1025 Rocket 3.9 19:18:13 10° NNW 19:22:23 52° W 19:26:31 10° S
EO 1 Delta rocket 4.4 19:16:07 10° SSE 19:22:50 70° ENE 19:28:11 10° N
BREEZE-M DEB (TANK) 3.4 19:20:06 10° W 19:24:08 78° N 19:31:48 13° E
Cosmos 1190 Rocket 4.3 19:20:33 10° NNW 19:25:44 52° ENE 19:30:01 15° SE
Cosmos 405 Rocket 3.6 19:26:20 16° SE 19:28:25 25° E 19:31:31 10° NE
GEOS 3 Rocket 4.4 19:26:52 10° SSE 19:31:49 50° SW 19:36:48 10° NW
Cosmos 389 Rocket 2.5 19:30:01 10° N 19:33:24 54° ENE 19:35:43 18° SSE
Cosmos 1892 Rocket 3.8 19:30:53 10° N 19:35:15 50° ENE 19:38:37 16° SSE
NOSS 0 Rocket 4.0 19:30:28 10° NNW 19:36:42 86° WSW 19:42:55 10° SSE
Nadezhda 1 Rocket 4.0 19:31:58 10° S 19:38:02 84° W 19:44:11 10° N
Cosmos 2333 Rocket 3.0 19:32:37 10° NW 19:38:08 52° WSW 19:43:40 10° S
Cosmos 962 Rocket 4.5 19:33:35 10° N 19:39:55 76° E 19:46:16 10° SSE
Okean 1-7 Rocket 3.6 19:36:47 10° N 19:41:11 58° ENE 19:44:39 16° SSE
SJ-11-01 4.4 19:36:39 10° SSE 19:41:25 80° WSW 19:46:12 10° NNW
Cosmos 1441 Rocket 3.7 19:42:12 10° SSW 19:45:58 61° WNW 19:49:44 10° N
Timation 2 Rocket 4.4 19:39:54 10° SW 19:46:26 67° NW 19:52:43 10° NNE
Cosmos 1295 Rocket 4.5 19:40:19 10° N 19:46:34 87° W 19:52:41 10° S
Ariane Rocket 4.5 19:42:37 10° SSW 19:47:18 38° W 19:52:03 10° NNW
In-Cosmos 22 4.0 19:42:11 10° N 19:47:33 72° ENE 19:52:32 12° SSE
Cosmos 2237 Rocket 2.2 19:42:28 10° NNW 19:48:13 83° ENE 19:52:31 18° SSE
Cosmos 1461 3.4 19:48:05 10° SW 19:52:01 57° NW 19:55:57 10° NNE
Meteor 1-4 Rocket 2.3 19:50:28 10° N 19:54:02 72° ENE 19:55:34 31° SSE
Meteor 2-5 Rocket 3.9 19:49:00 10° N 19:54:44 58° ENE 19:58:36 21° SSE
Cosmos 2056 Rocket 3.7 19:50:42 10° S 19:55:54 49° ESE 20:01:06 10° NNE
Cosmos 614 Rocket 3.9 19:51:09 10° NNW 19:56:25 89° W 20:00:10 19° SSE
Cosmos 1674 3.3 19:53:30 10° N 19:56:58 35° ENE 19:57:14 35° E
NOSS 3-4 (A) 4.1 19:50:15 10° NW 19:57:09 65° SW 20:03:34 15° SSE
NOSS 3-4 (C) 4.1 19:50:21 10° NW 19:57:15 66° SW 20:03:38 15° SSE
Cosmos 1980 3.7 19:51:39 10° NNW 19:57:20 82° WSW 20:01:33 19° SSE
CZ-2C R/B 3.3 19:55:02 25° SE 19:57:59 54° ENE 20:03:21 10° N
Cosmos 407 Rocket 3.5 19:52:51 10° NNW 19:58:01 84° WSW 20:01:46 19° SSE
CZ-2C R/B 3.9 20:00:39 10° N 20:05:07 70° WNW 20:09:32 10° SSW
Terra 3.9 20:06:35 12° NE 20:06:47 12° NE 20:08:29 10° NNE
Cosmos 1707 4.0 20:03:23 10° NNW 20:07:06 41° W 20:10:47 10° SSW
Cosmos 1624 Rocket 3.9 20:02:52 10° S 20:07:58 61° ESE 20:13:07 10° NNE
SJ-6B 3.9 20:08:02 10° S 20:12:01 46° W 20:16:00 10° NNW
Cosmos 2341 Rocket 4.3 20:08:44 10° NNW 20:14:57 69° W 20:21:06 10° S
KORONAS-FOTON 3.9 20:12:44 10° N 20:16:22 51° ENE 20:16:22 51° ENE
SPOT 3 Rocket 4.3 20:12:35 10° S 20:17:35 52° W 20:22:38 10° NNW
SL-16 R/B 2.3 20:12:32 10° NNW 20:18:10 60° ENE 20:20:07 39° ESE
Cosmos 1544 Rocket 3.5 20:16:56 40° SSE 20:18:21 61° E 20:22:46 10° NNE
USA 234 4.0 20:13:12 14° ENE 20:18:37 47° N 20:24:50 10° WNW
Cosmos 1455 Rocket 2.9 20:16:22 23° S 20:19:03 75° E 20:23:32 10° NNE
Cosmos 1954 Rocket 3.9 20:14:05 10° NNW 20:19:21 78° ENE 20:21:17 39° SE
Cosmos 2181 Rocket 3.9 20:13:13 10° S 20:19:27 83° E 20:25:50 10° N
ERS-1 Rocket 4.1 20:20:34 26° ENE 20:20:51 26° ENE 20:24:59 10° N
ADEOS Rocket 3.4 20:16:02 10° NNE 20:23:19 80° ESE 20:31:04 10° SSW
Spot 2 Rocket 3.6 20:23:09 45° ESE 20:24:19 56° ENE 20:29:15 10° N
Cosmos 2219 Rocket 4.2 20:20:09 10° NW 20:24:33 24° WSW 20:28:57 10° SSW
Cosmos 1140 Rocket 3.6 20:19:58 10° NNW 20:25:10 74° WSW 20:27:30 33° S
Cosmos 1766 3.4 20:35:09 59° NE 20:35:09 59° NE 20:38:29 10° NNE
Cosmos 2218 Rocket 4.1 20:28:29 10° NNW 20:34:54 79° W 20:39:05 23° S
Cosmos 2082 3.8 20:34:48 48° ESE 20:35:01 49° ESE 20:40:31 10° NE
Cosmos 1626 Rocket 3.3 20:32:17 10° N 20:36:37 74° ENE 20:36:45 73° E
SL-08 RB Rocket 4.1 20:35:28 31° S 20:37:34 61° W 20:42:14 10° NNW
CZ-2C R/B 3.3 20:32:30 10° NNE 20:36:52 37° ENE 20:36:52 37° ENE
Cosmos 1371 Rocket 4.3 20:33:33 10° SSW 20:38:51 70° WNW 20:44:14 10° NNE
Cosmos 2366 rocket 4.1 20:33:21 10° NNW 20:39:44 78° W 20:43:36 26° S
Resurs 1-3 4.3 20:37:58 29° SSW 20:39:53 51° W 20:44:12 10° NNW
ATLAS 2AS CENTAUR R/B 4.4 20:33:50 10° NW 20:40:04 29° WSW 20:45:54 10° SSW
CZ-4C R/B 4.3 20:35:25 10° NW 20:40:29 25° N 20:46:15 10° ENE
Resurs 01 Rocket 2.0 20:43:17 42° SSW 20:44:33 60° WSW 20:48:58 10° NNW
SL-8 R/B 3.5 20:43:30 10° W 20:48:18 78° S 20:48:22 78° S
H-2A R/B 3.2 20:45:01 15° SSW 20:48:41 37° W 20:53:22 10° NNW
Cosmos 1821 Rocket 4.0 20:42:39 10° N 20:48:44 54° ENE 20:49:26 51° E
Cosmos 1452 Rocket 4.3 20:52:11 37° NE 20:52:11 37° NE 20:55:32 10° NNE
Cosmos 676 Rocket 4.5 20:45:48 10° NNW 20:50:58 57° WSW 20:52:35 40° SSW
Cosmos 2227 Rocket 2.1 20:47:09 10° SSW 20:52:49 87° WNW 20:58:32 10° NNE
Cosmos 2219 3.8 20:47:28 10° SW 20:53:07 57° NW 20:58:49 10° NNE
ERBS 3.8 20:50:42 10° WNW 20:52:53 37° NW 20:52:53 37° NW
MetOp-B 4.0 20:54:15 63° SSE 20:55:10 89° E 21:00:34 10° NNW
Cosmos 1626 3.9 20:52:49 10° N 20:54:36 25° NNE 20:54:36 25° NNE
Cosmos 1602 Rocket 3.6 20:52:31 10° N 20:56:34 75° NNW 20:56:34 75° NNW
ARGOS 4.5 20:54:01 14° SSW 20:58:04 36° W 21:03:01 10° NNW
Cosmos 1437 Rocket 3.7 20:55:03 10° NNW 20:58:40 42° W 20:58:40 42° W
Cosmos 2297 Rocket 2.4 20:58:07 10° SW 21:03:46 71° WNW 21:09:28 10° NNE
SPOT 5 3.7 21:09:37 41° NE 21:09:37 41° NE 21:13:25 10° N
RESURS DK-1 3.4 21:06:59 10° NNW 21:09:54 43° NNW 21:09:54 43° NNW
Landsat 7 4.2 21:13:01 55° NNE 21:13:01 55° NNE 21:16:54 10° N
Cosmos 1943 3.8 21:16:16 10° NNW 21:21:25 45° NE 21:21:25 45° NE
Cosmos 1850 Rocket 4.1 21:18:00 10° NNW 21:22:50 70° WNW 21:22:50 70° WNW
Cosmos 2237 Rocket 4.4 21:27:45 10° WNW 21:31:33 19° W 21:34:22 13° SW
Terra 3.1 21:45:29 37° N 21:45:29 37° N 21:48:24 10° N
SPOT 1/Viking Rocket 4.1 21:48:28 54° NW 21:48:28 54° NW 21:52:43 10° NNW
Cosmos 1934 Rocket 4.0 21:47:18 10° N 21:52:49 73° NNW 21:52:49 73° NNW
Cosmos 1603 4.2 21:51:44 10° NNW 21:56:16 58° NW 21:56:16 58° NW
ERS-1 Rocket 4.0 22:00:34 42° WNW 22:00:34 42° WNW 22:04:18 10° NNW
USA 234 3.5 22:00:33 59° NE 22:01:06 61° NNE 22:07:32 10° WNW
SL-16 R/B 3.7 21:57:16 10° NW 22:01:55 27° WSW 22:02:00 27° WSW
CZ-2C R/B 3.8 22:12:51 10° N 22:17:58 39° WNW 22:18:23 38° WNW
CZ-4C R/B 3.7 22:24:31 10° NW 22:30:50 41° NNE 22:31:37 40° NE
Cosmos 2227 Rocket 4.4 22:33:24 10° W 22:37:43 22° NW 22:42:05 10° N
Cosmos 2263 Rocket 4.0 23:06:41 26° NNE 23:06:41 26° NNE 23:09:04 10° NNE
Mayak 1.9 23:22:06 10° N 23:22:17 11° N 23:22:17 11° N
